Wind_Speed
30 31 31 32 33 33 33 33 34 34 34 34 35 34 35 35 35 35 36 36 36 35 35 35 35 35 36 37 36 36 36 35 36 35 34 33 33 33 33 33 33 32 32
29 29 30 31 32 32 32 32 33 34 34 35 35 35 35 35 36 36 36 36 36 36 35 35 35 36 36 36 35 35 34 34 35 34 34 33 33 33 33 33 32 31 30
27 28 29 29 30 31 31 32 33 33 33 34 35 35 35 35 35 35 34 35 36 36 35 35 36 36 37 36 35 34 35 35 34 32 32 33 31 32 32 32 31 31 31
25 26 27 28 29 30 30 31 31 32 32 33 34 34 34 34 34 34 34 34 34 35 35 35 36 36 36 36 35 34 35 34 33 32 31 31 32 31 32 32 31 30 30
24 25 26 26 27 28 28 29 30 30 31 32 33 32 32 33 34 33 33 33 33 34 35 35 35 35 34 34 35 34 34 33 33 32 32 32 33 32 31 30 30 30 30
24 24 25 25 27 28 28 28 30 30 31 32 32 31 32 33 34 33 33 32 32 33 34 34 34 34 34 34 34 34 33 33 32 32 32 32 33 32 30 29 29 29 29
25 25 26 26 27 28 28 29 30 31 31 32 31 31 32 31 32 32 32 31 31 31 32 33 33 33 33 33 33 32 31 32 32 31 31 31 30 30 30 29 28 28 29
25 25 26 26 27 27 27 28 29 30 30 30 29 30 31 31 31 30 30 30 30 31 32 32 32 32 32 32 31 31 31 30 30 31 30 30 29 29 29 29 28 28 28
24 25 25 26 27 27 27 28 28 28 28 29 30 29 29 29 29 28 28 28 29 29 28 29 31 31 31 30 31 31 31 30 30 31 30 29 29 28 29 30 29 29 28
24 24 25 25 27 27 27 27 27 27 28 29 28 27 26 26 26 26 26 26 27 26 26 27 28 29 30 30 29 29 29 29 30 30 30 30 30 29 29 29 29 29 29
23 23 24 25 27 27 27 27 27 27 28 27 26 25 24 24 24 24 24 25 25 25 25 25 26 27 27 27 27 28 28 28 28 29 28 29 29 30 30 30 30 29 28
23 24 24 25 27 26 27 26 26 25 25 24 23 23 23 23 23 23 24 24 24 25 25 25 26 26 26 26 26 27 28 28 28 27 27 27 28 28 28 29 29 29 28
23 24 25 26 25 25 24 25 24 24 23 22 22 21 21 21 22 22 23 24 24 25 25 26 26 26 26 26 25 26 26 26 27 26 26 26 26 26 27 27 27 26 26
23 23 24 24 24 23 23 23 23 23 22 21 20 20 20 21 21 22 23 24 24 25 26 27 26 26 27 26 25 24 24 24 24 25 25 25 25 26 25 25 25 24 24
22 22 22 23 23 23 23 23 22 21 21 21 21 21 21 21 22 23 23 24 24 25 25 26 25 26 26 26 25 25 24 24 23 23 23 24 24 24 24 23 23 23 23
22 22 22 22 22 23 22 21 21 21 21 21 22 22 22 22 23 24 24 24 24 25 25 25 25 24 24 24 24 24 23 23 22 22 22 22 22 22 22 22 22 23 23
22 21 21 21 21 21 21 20 21 21 21 21 22 22 22 21 22 22 23 23 24 25 24 24 23 23 23 23 23 22 22 22 21 21 21 21 21 21 21 21 22 23 23
23 22 22 21 21 20 21 21 21 21 21 22 22 22 22 22 22 22 23 23 23 23 23 23 23 23 22 22 22 21 21 21 21 21 21 21 21 21 21 21 23 23 23
23 23 23 22 22 21 21 21 22 22 22 22 22 22 22 22 22 22 22 22 22 22 23 23 22 22 22 22 22 22 22 21 21 21 21 21 21 21 22 22 23 23 23
23 22 22 22 22 21 21 21 21 21 21 21 21 21 21 21 21 21 22 22 22 22 22 22 22 23 23 22 22 22 22 22 22 22 22 22 22 22 22 22 22 21 21
21 21 20 20 21 20 20 19 19 20 20 20 20 21 21 21 21 21 21 21 22 22 22 23 23 23 22 22 22 22 22 22 22 22 23 23 23 22 22 22 21 20 20
20 20 20 20 20 19 19 19 19 19 20 20 20 20 20 21 21 21 21 21 21 21 22 22 22 22 22 22 22 22 22 23 22 22 22 23 23 22 22 21 20 20 19
20 20 20 20 20 20 20 20 20 20 20 20 20 20 20 20 21 20 20 20 20 21 21 21 21 21 22 22 22 22 22 22 22 22 22 22 22 22 22 21 20 19 19
21 21 21 21 21 20 20 20 20 20 20 20 20 21 21 21 20 20 20 20 20 20 21 21 21 21 21 22 22 23 22 22 22 22 22 22 22 21 21 21 20 20 19
22 22 22 22 22 21 22 21 21 21 21 21 21 21 21 21 20 20 20 21 21 20 20 20 20 21 21 22 22 22 22 22 22 22 22 22 22 21 21 20 20 19 19
23 23 22 22 22 22 22 22 22 22 22 22 22 22 21 21 21 21 21 21 21 20 20 21 21 21 21 21 21 21 21 21 22 22 22 22 22 22 21 21 21 20 19
Wind_Direction
274 273 270 270 270 268 265 265 267 267 266 266 267 268 271 272 272 269 266 264 262 263 264 265 266 267 267 267 267 270 271 272 273 272 270 272 274 273 274 275 276 276 277
276 275 272 271 270 267 265 266 268 268 269 269 268 269 272 273 272 270 266 263 263 264 264 263 264 265 266 267 267 269 270 272 273 273 271 274 275 275 276 277 277 277 280
278 277 275 275 272 269 268 269 270 270 271 272 270 271 272 273 272 269 266 264 264 263 262 262 263 265 266 267 267 268 270 273 275 274 275 275 276 277 278 278 279 281 282
282 280 279 278 275 272 271 271 273 273 274 275 273 273 272 272 271 268 266 264 262 261 260 262 264 267 267 266 266 268 270 273 275 276 278 277 277 279 279 279 278 279 280
283 283 283 281 278 276 274 274 275 276 277 276 276 275 272 271 270 269 266 264 262 262 261 263 265 266 267 265 266 269 271 274 275 276 278 279 279 280 280 278 276 276 279
285 285 283 281 280 278 275 276 276 276 278 278 277 276 273 271 269 268 267 265 264 263 262 263 264 265 265 266 267 269 272 272 273 275 278 279 281 281 279 278 276 277 279
284 283 281 279 279 278 276 278 278 278 279 279 277 276 273 270 268 267 265 263 262 263 263 263 264 266 267 268 270 272 272 272 272 276 277 279 280 278 278 278 278 278 280
283 282 280 277 277 277 278 280 279 278 278 279 278 276 274 270 267 264 263 262 263 263 264 265 265 267 268 271 271 271 272 271 272 275 277 278 278 278 278 278 276 278 280
285 284 281 278 277 276 279 280 280 280 280 281 279 278 275 270 267 265 264 264 264 265 267 268 268 268 270 271 270 269 271 271 273 275 276 275 277 277 278 279 279 278 280
286 284 282 280 278 278 279 280 281 283 283 283 281 280 277 273 268 266 266 264 264 266 268 269 268 269 269 271 270 270 270 271 274 276 277 276 276 277 277 278 279 281 281
287 286 284 283 281 280 279 281 282 284 285 285 281 278 276 271 266 263 263 263 265 266 268 270 269 268 269 271 271 270 270 271 274 277 277 277 276 277 276 278 280 281 282
290 288 286 285 285 283 284 285 285 286 286 284 281 277 272 269 266 263 262 263 264 265 268 271 271 268 269 271 272 271 271 272 273 275 276 276 276 277 278 279 280 281 282
295 292 290 288 287 287 288 287 284 284 285 285 284 280 275 269 267 265 263 263 265 267 269 271 271 269 269 270 271 271 272 272 272 273 274 274 275 278 279 281 282 282 283
297 296 294 291 289 289 290 290 287 283 283 283 284 282 277 271 267 266 265 267 268 269 271 271 271 271 272 272 274 274 273 273 273 272 273 274 274 277 279 280 280 281 282
295 295 295 291 288 289 290 289 286 285 284 284 284 283 277 272 269 268 268 270 270 270 270 270 269 270 273 274 274 274 274 274 274 273 274 275 275 276 276 277 279 281 282
294 295 294 290 288 287 287 285 284 284 283 283 283 282 277 273 270 269 269 271 271 269 269 271 270 271 273 273 273 274 273 272 273 273 275 275 275 275 275 276 279 281 282
293 291 291 291 289 286 284 284 283 283 282 283 283 281 278 273 270 268 268 269 270 270 271 272 272 272 272 273 273 272 270 270 272 272 275 275 275 277 277 278 279 280 281
291 287 286 288 288 287 284 283 284 284 283 284 284 282 278 275 273 271 270 270 271 271 272 272 272 271 271 271 271 271 272 271 272 274 275 275 275 277 280 282 281 281 280
291 288 286 285 286 285 284 283 284 284 283 282 281 281 279 276 274 273 271 270 270 271 271 272 272 272 271 271 272 273 274 273 273 274 275 276 276 278 281 283 283 282 281
294 291 289 286 285 286 286 286 285 284 283 282 281 280 278 275 273 272 272 271 271 272 272 273 272 272 271 272 274 275 275 274 273 273 273 276 277 279 281 282 283 284 283
292 291 290 288 285 285 286 287 287 286 286 285 284 282 280 277 275 276 276 274 274 274 274 273 273 272 271 272 274 275 274 274 273 273 273 275 276 278 280 281 282 283 283
289 289 289 288 285 285 286 286 287 288 288 288 287 286 284 281 279 277 277 276 275 275 275 274 273 272 271 271 273 274 274 273 274 274 274 275 276 277 278 279 279 280 280
288 288 287 286 284 284 285 285 285 286 287 287 286 286 286 284 280 276 274 275 276 277 274 273 273 273 271 271 272 273 274 273 273 274 275 276 276 275 275 276 277 277 277
286 287 288 286 282 282 285 286 285 286 286 286 286 287 286 283 279 276 275 275 277 277 275 272 272 272 271 271 271 272 272 271 272 274 274 274 274 272 272 274 274 275 274
284 285 285 284 283 283 284 285 284 284 286 286 286 287 286 282 278 276 276 276 277 278 276 275 274 274 273 272 271 271 270 270 271 273 273 273 272 271 270 270 271 273 272
284 283 284 283 283 283 283 283 283 283 283 284 284 285 284 281 278 278 278 279 279 278 276 276 277 275 274 273 272 271 270 270 271 272 273 272 271 269 267 268 268 269 268
Height
5615 5614 5614 5615 5615 5616 5617 5618 5619 5620 5620 5621 5622 5622 5623 5622 5622 5623 5624 5625 5627 5629 5630 5632 5633 5634 5635 5636 5636 5637 5637 5638 5638 5639 5639 5638 5638 5638 5638 5637 5636 5636 5635
5607 5606 5606 5606 5606 5607 5608 5610 5610 5610 5611 5611 5612 5612 5613 5613 5613 5613 5614 5615 5617 5619 5621 5622 5623 5624 5626 5626 5627 5628 5628 5629 5629 5630 5630 5630 5629 5629 5628 5628 5627 5626 5626
5599 5599 5599 5599 5599 5599 5600 5601 5601 5602 5602 5602 5602 5603 5603 5603 5603 5604 5605 5606 5608 5609 5611 5613 5614 5615 5616 5617 5618 5619 5619 5620 5620 5621 5621 5621 5620 5620 5619 5619 5618 5617 5617
5593 5593 5592 5592 5592 5592 5593 5593 5593 5593 5593 5593 5593 5593 5593 5593 5594 5594 5595 5597 5598 5600 5602 5604 5605 5606 5607 5608 5609 5610 5611 5612 5612 5612 5612 5612 5612 5611 5610 5610 5610 5609 5608
5588 5587 5586 5585 5585 5585 5585 5585 5585 5585 5585 5584 5584 5584 5584 5584 5584 5585 5586 5588 5590 5591 5593 5595 5596 5597 5598 5599 5600 5601 5602 5603 5603 5603 5603 5603 5603 5602 5601 5601 5600 5600 5599
5582 5581 5580 5579 5578 5578 5578 5578 5578 5577 5576 5576 5575 5575 5575 5575 5576 5576 5577 5579 5581 5583 5584 5586 5587 5588 5589 5590 5591 5592 5593 5594 5594 5594 5594 5594 5593 5593 5592 5592 5592 5592 5591
5576 5575 5574 5573 5572 5571 5571 5570 5570 5569 5568 5567 5567 5566 5566 5566 5567 5568 5569 5570 5572 5574 5576 5577 5579 5580 5581 5582 5582 5583 5584 5584 5585 5585 5585 5585 5584 5584 5584 5584 5583 5582 5582
5569 5568 5567 5565 5565 5564 5563 5562 5561 5560 5560 5559 5559 5558 5558 5558 5558 5560 5561 5563 5564 5566 5568 5569 5570 5571 5572 5573 5574 5575 5575 5575 5576 5576 5576 5576 5575 5575 5575 5575 5574 5574 5573
5562 5561 5559 5558 5557 5557 5556 5555 5554 5553 5552 5551 5550 5550 5550 5550 5551 5552 5553 5555 5556 5558 5559 5561 5561 5562 5564 5564 5566 5566 5567 5567 5567 5567 5567 5567 5566 5566 5566 5566 5566 5565 5565
5556 5554 5553 5552 5551 5550 5549 5548 5546 5545 5544 5543 5542 5542 5542 5542 5543 5544 5546 5547 5549 5551 5552 5553 5554 5554 5555 5556 5557 5558 5559 5559 5559 5559 5559 5559 5559 5558 5558 5558 5557 5557 5556
5550 5548 5547 5545 5544 5543 5542 5540 5539 5538 5536 5535 5535 5535 5535 5535 5536 5537 5538 5540 5542 5543 5544 5545 5546 5546 5547 5548 5548 5550 5551 5551 5551 5551 5551 5551 5551 5551 5550 5550 5549 5548 5547
5544 5542 5541 5539 5538 5536 5534 5533 5532 5531 5530 5528 5528 5528 5528 5528 5529 5530 5531 5533 5535 5536 5537 5538 5538 5539 5540 5540 5541 5541 5542 5543 5543 5543 5543 5543 5543 5543 5542 5542 5541 5540 5539
5538 5536 5535 5533 5531 5529 5528 5526 5525 5524 5523 5522 5521 5521 5522 5522 5523 5523 5525 5526 5527 5529 5530 5531 5531 5532 5532 5533 5533 5534 5534 5535 5535 5535 5535 5535 5535 5535 5534 5534 5533 5532 5532
5532 5530 5528 5526 5525 5523 5521 5519 5518 5517 5516 5516 5515 5515 5515 5516 5517 5517 5518 5519 5520 5521 5522 5523 5523 5524 5525 5525 5526 5526 5526 5527 5527 5527 5527 5527 5527 5527 5527 5527 5526 5526 5525
5526 5524 5522 5520 5518 5517 5515 5513 5512 5511 5511 5511 5510 5510 5510 5510 5511 5511 5511 5512 5513 5514 5515 5516 5516 5517 5517 5518 5518 5519 5519 5519 5519 5519 5519 5520 5520 5520 5519 5519 5519 5519 5518
5520 5517 5516 5514 5512 5511 5510 5508 5507 5506 5505 5505 5505 5505 5504 5504 5504 5504 5505 5505 5506 5507 5508 5509 5509 5510 5510 5511 5511 5512 5512 5512 5512 5512 5512 5512 5512 5513 5512 5512 5512 5512 5512
5514 5512 5510 5508 5507 5505 5504 5503 5502 5501 5500 5499 5499 5499 5498 5498 5498 5498 5498 5499 5499 5500 5501 5501 5502 5503 5503 5504 5504 5505 5505 5505 5505 5505 5506 5506 5506 5506 5506 5505 5505 5505 5505
5507 5505 5504 5502 5501 5500 5499 5498 5497 5496 5495 5494 5493 5492 5492 5492 5492 5492 5492 5492 5493 5493 5494 5495 5495 5496 5496 5497 5497 5498 5498 5499 5499 5499 5499 5500 5500 5500 5499 5499 5498 5498 5497
5500 5499 5497 5496 5495 5494 5493 5492 5491 5490 5489 5488 5487 5486 5486 5485 5485 5485 5485 5486 5486 5486 5487 5488 5488 5489 5489 5490 5490 5491 5491 5492 5492 5493 5493 5493 5493 5493 5492 5492 5491 5491 5490
5493 5492 5491 5490 5489 5488 5487 5486 5484 5483 5483 5482 5481 5480 5479 5479 5479 5479 5479 5479 5479 5479 5480 5481 5481 5482 5482 5483 5483 5484 5485 5485 5486 5486 5486 5486 5486 5486 5485 5485 5484 5484 5483
5487 5486 5484 5483 5483 5482 5481 5480 5478 5477 5476 5475 5475 5474 5473 5473 5472 5472 5472 5472 5472 5472 5473 5474 5474 5475 5475 5476 5476 5477 5477 5478 5478 5478 5478 5479 5479 5479 5478 5478 5477 5477 5477
5481 5479 5479 5478 5477 5476 5475 5473 5472 5471 5470 5469 5468 5468 5467 5466 5466 5465 5465 5465 5465 5465 5466 5466 5467 5467 5468 5469 5469 5470 5470 5471 5471 5471 5471 5471 5471 5471 5471 5471 5471 5471 5470
5474 5473 5472 5471 5471 5470 5469 5467 5466 5465 5464 5463 5463 5462 5461 5460 5459 5459 5459 5459 5459 5459 5458 5459 5459 5460 5461 5461 5462 5462 5463 5463 5464 5464 5464 5464 5464 5464 5464 5465 5465 5464 5464
5468 5467 5466 5465 5464 5463 5462 5461 5460 5459 5458 5457 5456 5455 5454 5453 5452 5452 5452 5452 5452 5452 5452 5452 5452 5453 5454 5454 5455 5455 5455 5456 5456 5456 5456 5457 5457 5457 5458 5458 5458 5458 5458
5461 5460 5459 5458 5457 5456 5455 5455 5454 5453 5452 5451 5450 5449 5448 5447 5446 5446 5446 5446 5445 5445 5445 5445 5445 5446 5446 5446 5447 5447 5447 5448 5448 5449 5449 5449 5450 5450 5450 5451 5451 5451 5452
5454 5453 5452 5451 5450 5449 5448 5448 5447 5446 5445 5444 5443 5442 5441 5440 5440 5440 5439 5439 5439 5438 5438 5438 5438 5438 5439 5439 5439 5439 5440 5440 5441 5441 5442 5442 5443 5443 5443 5444 5444 5445 5445